owner,sensor,date,latitude,longitude,vertical_datum,direction_of_sea_water_velocity,sea_water_speed,upward_sea_water_velocity,qcFlag 
TABS,ioos:station:wmo:42045:1,2008-05-01T00:00:00Z,26.2168,-96.4998,2.0,145.9914212,11.97893568,-99999.0,'11111222,11111222,99999999' 
TABS,ioos:station:wmo:42045:1,2008-05-01T00:30:00Z,26.2168,-96.4998,2.0,147.8161169,7.491041316,-99999.0,'11133222,11111222,99999999' 
TABS,ioos:station:wmo:42045:1,2008-05-01T01:00:00Z,26.2168,-96.4998,2.0,221.2085275,4.70548616,-99999.0,'11133222,11111222,99999999' 
TABS,ioos:station:wmo:42045:1,2008-05-01T01:30:00Z,26.2168,-96.4998,2.0,156.1245645,2.00124961,-99999.0,'11133222,11111222,99999999' 
TABS,ioos:station:wmo:42045:1,2008-05-01T02:00:00Z,26.2168,-96.4998,2.0,224.30382,5.24004771,-99999.0,'11133222,11111222,99999999' 
TABS,ioos:station:wmo:42045:1,2008-05-01T02:30:00Z,26.2168,-96.4998,2.0,238.2325875,3.058120338,-99999.0,'11133222,11111222,99999999' 
TABS,ioos:station:wmo:42045:1,2008-05-01T03:00:00Z,26.2168,-96.4998,2.0,318.3418655,7.642676233,-99999.0,'11133222,11111222,99999999' 
TABS,ioos:station:wmo:42045:1,2008-05-01T03:30:00Z,26.2168,-96.4998,2.0,16.58121953,7.428916476,-99999.0,'11133222,11111222,99999999' 
TABS,ioos:station:wmo:42045:1,2008-05-01T04:00:00Z,26.2168,-96.4998,2.0,23.22552289,14.04847679,-99999.0,'11111222,11111222,99999999' 
TABS,ioos:station:wmo:42045:1,2008-05-01T04:30:00Z,26.2168,-96.4998,2.0,24.93527544,22.01181501,-99999.0,'11111222,11111222,99999999' 
TABS,ioos:station:wmo:42045:1,2008-05-01T05:00:00Z,26.2168,-96.4998,2.0,1.822476582,16.03811086,-99999.0,'11111222,11111222,99999999' 
TABS,ioos:station:wmo:42045:1,2008-05-01T05:30:00Z,26.2168,-96.4998,2.0,26.68472373,23.5816242,-99999.0,'11111222,11111222,99999999' 
TABS,ioos:station:wmo:42045:1,2008-05-01T06:00:00Z,26.2168,-96.4998,2.0,28.97771568,25.28550771,-99999.0,'11111222,11111222,99999999' 
TABS,ioos:station:wmo:42045:1,2008-05-01T06:30:00Z,26.2168,-96.4998,2.0,35.89039732,25.50172739,-99999.0,'11111222,11111222,99999999' 
TABS,ioos:station:wmo:42045:1,2008-05-01T07:00:00Z,26.2168,-96.4998,2.0,30.98255969,31.58661109,-99999.0,'11111222,11111222,99999999' 
TABS,ioos:station:wmo:42045:1,2008-05-01T07:30:00Z,26.2168,-96.4998,2.0,43.41547229,29.40567462,-99999.0,'11111222,11111222,99999999' 
TABS,ioos:station:wmo:42045:1,2008-05-01T08:00:00Z,26.2168,-96.4998,2.0,43.79640497,27.26498304,-99999.0,'11111222,11111222,99999999' 
TABS,ioos:station:wmo:42045:1,2008-05-01T08:30:00Z,26.2168,-96.4998,2.0,41.07117178,30.03069263,-99999.0,'11111222,11111222,99999999' 
TABS,ioos:station:wmo:42045:1,2008-05-01T09:00:00Z,26.2168,-96.4998,2.0,44.7817277,35.24952907,-99999.0,'11111222,11111222,99999999' 
TABS,ioos:station:wmo:42045:1,2008-05-01T09:30:00Z,26.2168,-96.4998,2.0,49.04542541,38.69028302,-99999.0,'11111222,11111222,99999999' 
TABS,ioos:station:wmo:42045:1,2008-05-01T10:00:00Z,26.2168,-96.4998,2.0,48.36874254,43.56233694,-99999.0,'11111222,11111222,99999999' 
TABS,ioos:station:wmo:42045:1,2008-05-01T10:30:00Z,26.2168,-96.4998,2.0,48.11597288,30.57099442,-99999.0,'11111222,11111222,99999999' 
TABS,ioos:station:wmo:42045:1,2008-05-01T11:00:00Z,26.2168,-96.4998,2.0,66.84975335,43.62263862,-99999.0,'11111222,11111222,99999999' 
TABS,ioos:station:wmo:42045:1,2008-05-01T11:30:00Z,26.2168,-96.4998,2.0,62.79139472,44.98805397,-99999.0,'11111222,11111222,99999999' 
TABS,ioos:station:wmo:42045:1,2008-05-01T12:00:00Z,26.2168,-96.4998,2.0,67.85520935,54.83496148,-99999.0,'11111222,11111222,99999999' 
TABS,ioos:station:wmo:42045:1,2008-05-01T12:30:00Z,26.2168,-96.4998,2.0,72.87313992,54.02578088,-99999.0,'11111222,11111222,99999999' 
TABS,ioos:station:wmo:42045:1,2008-05-01T13:00:00Z,26.2168,-96.4998,2.0,74.18741361,54.53366392,-99999.0,'11111222,11111222,99999999' 
TABS,ioos:station:wmo:42045:1,2008-05-01T13:30:00Z,26.2168,-96.4998,2.0,77.78940886,61.13303035,-99999.0,'11111222,11111222,99999999' 
TABS,ioos:station:wmo:42045:1,2008-05-01T14:00:00Z,26.2168,-96.4998,2.0,79.58186542,58.34181091,-99999.0,'11111222,11111222,99999999' 
TABS,ioos:station:wmo:42045:1,2008-05-01T14:30:00Z,26.2168,-96.4998,2.0,83.32777791,56.97589403,-99999.0,'11111222,11111222,99999999' 
TABS,ioos:station:wmo:42045:1,2008-05-01T15:00:00Z,26.2168,-96.4998,2.0,83.10064658,56.69051508,-99999.0,'11111222,11111222,99999999' 
TABS,ioos:station:wmo:42045:1,2008-05-01T15:30:00Z,26.2168,-96.4998,2.0,82.48689011,57.1304691,-99999.0,'11111222,11111222,99999999' 
TABS,ioos:station:wmo:42045:1,2008-05-01T16:00:00Z,26.2168,-96.4998,2.0,86.29454394,58.95324419,-99999.0,'11111222,11111222,99999999' 
TABS,ioos:station:wmo:42045:1,2008-05-01T16:30:00Z,26.2168,-96.4998,2.0,94.62318709,52.85196307,-99999.0,'11111222,11111222,99999999' 
TABS,ioos:station:wmo:42045:1,2008-05-01T17:00:00Z,26.2168,-96.4998,2.0,97.87503764,48.60841594,-99999.0,'11111222,11111222,99999999' 
TABS,ioos:station:wmo:42045:1,2008-05-01T17:30:00Z,26.2168,-96.4998,2.0,100.7348734,46.11707059,-99999.0,'11111222,11111222,99999999' 
TABS,ioos:station:wmo:42045:1,2008-05-01T18:00:00Z,26.2168,-96.4998,2.0,104.0492732,42.55287652,-99999.0,'11111222,11111222,99999999' 
TABS,ioos:station:wmo:42045:1,2008-05-01T18:30:00Z,26.2168,-96.4998,2.0,110.6467403,38.42816805,-99999.0,'11111222,11111222,99999999' 
TABS,ioos:station:wmo:42045:1,2008-05-01T19:00:00Z,26.2168,-96.4998,2.0,111.730529,39.05547337,-99999.0,'11111222,11111222,99999999' 
TABS,ioos:station:wmo:42045:1,2008-05-01T19:30:00Z,26.2168,-96.4998,2.0,121.9467855,35.28416784,-99999.0,'11111222,11111222,99999999' 
TABS,ioos:station:wmo:42045:1,2008-05-01T20:00:00Z,26.2168,-96.4998,2.0,116.6958887,33.27725049,-99999.0,'11111222,11111222,99999999' 
TABS,ioos:station:wmo:42045:1,2008-05-01T20:30:00Z,26.2168,-96.4998,2.0,116.244233,31.95391212,-99999.0,'11111222,11111222,99999999' 
TABS,ioos:station:wmo:42045:1,2008-05-01T21:00:00Z,26.2168,-96.4998,2.0,116.6125834,32.30224915,-99999.0,'11111222,11111222,99999999' 
TABS,ioos:station:wmo:42045:1,2008-05-01T21:30:00Z,26.2168,-96.4998,2.0,120.4106415,29.13896704,-99999.0,'11111222,11111222,99999999' 
TABS,ioos:station:wmo:42045:1,2008-05-01T22:00:00Z,26.2168,-96.4998,2.0,126.137554,25.97812156,-99999.0,'11111222,11111222,99999999' 
TABS,ioos:station:wmo:42045:1,2008-05-01T22:30:00Z,26.2168,-96.4998,2.0,123.765477,27.36615793,-99999.0,'11111222,11111222,99999999' 
TABS,ioos:station:wmo:42045:1,2008-05-01T23:00:00Z,26.2168,-96.4998,2.0,125.5009573,25.45126323,-99999.0,'11111222,11111222,99999999' 
TABS,ioos:station:wmo:42045:1,2008-05-01T23:30:00Z,26.2168,-96.4998,2.0,132.5901589,19.844823,-99999.0,'11111222,11111222,99999999' 
TABS,ioos:station:wmo:42045:1,2008-05-02T00:00:00Z,26.2168,-96.4998,2.0,132.1635976,25.5791028,-99999.0,'11111222,11111222,99999999' 
TABS,ioos:station:wmo:42045:1,2008-05-02T00:30:00Z,26.2168,-96.4998,2.0,139.7832882,22.13174417,-99999.0,'11111222,11111222,99999999' 
TABS,ioos:station:wmo:42045:1,2008-05-02T01:00:00Z,26.2168,-96.4998,2.0,142.2450109,16.31594619,-99999.0,'11111222,11111222,99999999' 
TABS,ioos:station:wmo:42045:1,2008-05-02T01:30:00Z,26.2168,-96.4998,2.0,143.2656959,10.13202842,-99999.0,'11111222,11111222,99999999' 
TABS,ioos:station:wmo:42045:1,2008-05-02T02:00:00Z,26.2168,-96.4998,2.0,152.2520243,14.94906352,-99999.0,'11111222,11111222,99999999' 
TABS,ioos:station:wmo:42045:1,2008-05-02T02:30:00Z,26.2168,-96.4998,2.0,148.84992,15.83283297,-99999.0,'11111222,11111222,99999999' 
TABS,ioos:station:wmo:42045:1,2008-05-02T03:00:00Z,26.2168,-96.4998,2.0,161.3038576,11.1060344,-99999.0,'11111222,11111222,99999999' 
TABS,ioos:station:wmo:42045:1,2008-05-02T03:30:00Z,26.2168,-96.4998,2.0,157.1786746,13.35546705,-99999.0,'11111222,11111222,99999999' 
TABS,ioos:station:wmo:42045:1,2008-05-02T04:00:00Z,26.2168,-96.4998,2.0,181.3889036,8.662545815,-99999.0,'11133222,11111222,99999999' 
TABS,ioos:station:wmo:42045:1,2008-05-02T04:30:00Z,26.2168,-96.4998,2.0,194.8629133,12.43609665,-99999.0,'11111222,11111222,99999999' 
TABS,ioos:station:wmo:42045:1,2008-05-02T05:00:00Z,26.2168,-96.4998,2.0,238.3123005,6.110981918,-99999.0,'11133222,11111222,99999999' 
TABS,ioos:station:wmo:42045:1,2008-05-02T05:30:00Z,26.2168,-96.4998,2.0,250.8994837,6.264894253,-99999.0,'11133222,11111222,99999999' 
TABS,ioos:station:wmo:42045:1,2008-05-02T06:00:00Z,26.2168,-96.4998,2.0,221.5356517,5.851392997,-99999.0,'11133222,11111222,99999999' 
TABS,ioos:station:wmo:42045:1,2008-05-02T06:30:00Z,26.2168,-96.4998,2.0,307.0822527,9.188062908,-99999.0,'11133222,11111222,99999999' 
TABS,ioos:station:wmo:42045:1,2008-05-02T07:00:00Z,26.2168,-96.4998,2.0,333.6218515,6.864765109,-99999.0,'11133222,11111222,99999999' 
TABS,ioos:station:wmo:42045:1,2008-05-02T07:30:00Z,26.2168,-96.4998,2.0,340.6462021,8.871330227,-99999.0,'11133222,11111222,99999999' 
TABS,ioos:station:wmo:42045:1,2008-05-02T08:00:00Z,26.2168,-96.4998,2.0,11.32061981,10.69813535,-99999.0,'11111222,11111222,99999999' 
TABS,ioos:station:wmo:42045:1,2008-05-02T08:30:00Z,26.2168,-96.4998,2.0,358.4443139,13.99515988,-99999.0,'11111222,11111222,99999999' 
TABS,ioos:station:wmo:42045:1,2008-05-02T09:00:00Z,26.2168,-96.4998,2.0,2.332078119,17.20424657,-99999.0,'11111222,11111222,99999999' 
TABS,ioos:station:wmo:42045:1,2008-05-02T09:30:00Z,26.2168,-96.4998,2.0,9.592059565,18.90428787,-99999.0,'11111222,11111222,99999999' 
TABS,ioos:station:wmo:42045:1,2008-05-02T10:00:00Z,26.2168,-96.4998,2.0,9.361431976,17.70579849,-99999.0,'11111222,11111222,99999999' 
TABS,ioos:station:wmo:42045:1,2008-05-02T10:30:00Z,26.2168,-96.4998,2.0,26.33578875,22.33849816,-99999.0,'11111222,11111222,99999999' 
TABS,ioos:station:wmo:42045:1,2008-05-02T11:00:00Z,26.2168,-96.4998,2.0,30.18483491,29.89325175,-99999.0,'11111222,11111222,99999999' 
TABS,ioos:station:wmo:42045:1,2008-05-02T11:30:00Z,26.2168,-96.4998,2.0,30.01087051,21.6529767,-99999.0,'11111222,11111222,99999999' 
TABS,ioos:station:wmo:42045:1,2008-05-02T12:00:00Z,26.2168,-96.4998,2.0,32.01215231,27.46666525,-99999.0,'11111222,11111222,99999999' 
TABS,ioos:station:wmo:42045:1,2008-05-02T12:30:00Z,26.2168,-96.4998,2.0,38.78287239,24.74578954,-99999.0,'11111222,11111222,99999999' 
TABS,ioos:station:wmo:42045:1,2008-05-02T13:00:00Z,26.2168,-96.4998,2.0,51.92330251,24.4034137,-99999.0,'11111222,11111222,99999999' 
TABS,ioos:station:wmo:42045:1,2008-05-02T13:30:00Z,26.2168,-96.4998,2.0,48.43138985,24.21939925,-99999.0,'11111222,11111222,99999999' 
TABS,ioos:station:wmo:42045:1,2008-05-02T14:00:00Z,26.2168,-96.4998,2.0,53.07815985,28.6320118,-99999.0,'11111222,11111222,99999999' 
TABS,ioos:station:wmo:42045:1,2008-05-02T14:30:00Z,26.2168,-96.4998,2.0,56.16594708,26.47315055,-99999.0,'11111222,11111222,99999999' 
TABS,ioos:station:wmo:42045:1,2008-05-02T15:00:00Z,26.2168,-96.4998,2.0,73.62988738,30.01685527,-99999.0,'11111222,11111222,99999999' 
TABS,ioos:station:wmo:42045:1,2008-05-02T15:30:00Z,26.2168,-96.4998,2.0,75.24234102,28.89313413,-99999.0,'11111222,11111222,99999999' 
TABS,ioos:station:wmo:42045:1,2008-05-02T16:00:00Z,26.2168,-96.4998,2.0,84.72857496,35.70099298,-99999.0,'11111222,11111222,99999999' 
TABS,ioos:station:wmo:42045:1,2008-05-02T16:30:00Z,26.2168,-96.4998,2.0,91.96988097,35.20080255,-99999.0,'11111222,11111222,99999999' 
TABS,ioos:station:wmo:42045:1,2008-05-02T17:00:00Z,26.2168,-96.4998,2.0,95.64823417,33.83426961,-99999.0,'11111222,11111222,99999999' 
TABS,ioos:station:wmo:42045:1,2008-05-02T17:30:00Z,26.2168,-96.4998,2.0,106.1863083,31.03002578,-99999.0,'11111222,11111222,99999999' 
TABS,ioos:station:wmo:42045:1,2008-05-02T18:00:00Z,26.2168,-96.4998,2.0,105.384697,32.5670017,-99999.0,'11111222,11111222,99999999' 
TABS,ioos:station:wmo:42045:1,2008-05-02T18:30:00Z,26.2168,-96.4998,2.0,112.6942832,35.50926076,-99999.0,'11111222,11111222,99999999' 
TABS,ioos:station:wmo:42045:1,2008-05-02T19:00:00Z,26.2168,-96.4998,2.0,115.5776178,34.25717589,-99999.0,'11111222,11111222,99999999' 
TABS,ioos:station:wmo:42045:1,2008-05-02T19:30:00Z,26.2168,-96.4998,2.0,117.9224517,37.75542345,-99999.0,'11111222,11111222,99999999' 
TABS,ioos:station:wmo:42045:1,2008-05-02T20:00:00Z,26.2168,-96.4998,2.0,116.9997292,36.54287482,-99999.0,'11111222,11111222,99999999' 
TABS,ioos:station:wmo:42045:1,2008-05-02T20:30:00Z,26.2168,-96.4998,2.0,133.2335474,44.04539704,-99999.0,'11111222,11111222,99999999' 
TABS,ioos:station:wmo:42045:1,2008-05-02T21:00:00Z,26.2168,-96.4998,2.0,138.3274195,36.66874009,-99999.0,'11111222,11111222,99999999' 
TABS,ioos:station:wmo:42045:1,2008-05-02T21:30:00Z,26.2168,-96.4998,2.0,141.215747,34.5472792,-99999.0,'11111222,11111222,99999999' 
TABS,ioos:station:wmo:42045:1,2008-05-02T22:00:00Z,26.2168,-96.4998,2.0,147.1210124,40.74681337,-99999.0,'11111222,11111222,99999999' 
TABS,ioos:station:wmo:42045:1,2008-05-02T22:30:00Z,26.2168,-96.4998,2.0,149.6001793,41.46007718,-99999.0,'11111222,11111222,99999999' 
TABS,ioos:station:wmo:42045:1,2008-05-02T23:00:00Z,26.2168,-96.4998,2.0,175.5753006,59.6276991,-99999.0,'11111222,11111222,99999999' 
TABS,ioos:station:wmo:42045:1,2008-05-02T23:30:00Z,26.2168,-96.4998,2.0,171.4853185,53.96477555,-99999.0,'11111222,11111222,99999999' 
TABS,ioos:station:wmo:42045:1,2008-05-03T00:00:00Z,26.2168,-96.4998,2.0,177.3398483,56.67105963,-99999.0,'11111222,11111222,99999999' 
TABS,ioos:station:wmo:42045:1,2008-05-03T00:30:00Z,26.2168,-96.4998,2.0,175.6947302,51.15433217,-99999.0,'11111222,11111222,99999999' 
TABS,ioos:station:wmo:42045:1,2008-05-03T01:00:00Z,26.2168,-96.4998,2.0,195.449716,43.8443839,-99999.0,'11111222,11111222,99999999' 
TABS,ioos:station:wmo:42045:1,2008-05-03T01:30:00Z,26.2168,-96.4998,2.0,200.0241125,43.89349041,-99999.0,'11111222,11111222,99999999' 
TABS,ioos:station:wmo:42045:1,2008-05-03T02:00:00Z,26.2168,-96.4998,2.0,195.4186052,46.03696341,-99999.0,'11111222,11111222,99999999' 
TABS,ioos:station:wmo:42045:1,2008-05-03T02:30:00Z,26.2168,-96.4998,2.0,188.2921831,42.43364821,-99999.0,'11111222,11111222,99999999' 
TABS,ioos:station:wmo:42045:1,2008-05-03T03:00:00Z,26.2168,-96.4998,2.0,188.9716935,42.44937338,-99999.0,'11111222,11111222,99999999' 
TABS,ioos:station:wmo:42045:1,2008-05-03T03:30:00Z,26.2168,-96.4998,2.0,191.9861985,42.85436267,-99999.0,'11111222,11111222,99999999' 
TABS,ioos:station:wmo:42045:1,2008-05-03T04:00:00Z,26.2168,-96.4998,2.0,193.5988351,42.91307726,-99999.0,'11111222,11111222,99999999' 
TABS,ioos:station:wmo:42045:1,2008-05-03T04:30:00Z,26.2168,-96.4998,2.0,192.4963415,42.42509635,-99999.0,'11111222,11111222,99999999' 
TABS,ioos:station:wmo:42045:1,2008-05-03T05:00:00Z,26.2168,-96.4998,2.0,198.6376408,41.9605255,-99999.0,'11111222,11111222,99999999' 
TABS,ioos:station:wmo:42045:1,2008-05-03T05:30:00Z,26.2168,-96.4998,2.0,206.3533565,36.35871285,-99999.0,'11111222,11111222,99999999' 
TABS,ioos:station:wmo:42045:1,2008-05-03T06:00:00Z,26.2168,-96.4998,2.0,214.6569712,37.29780825,-99999.0,'11111222,11111222,99999999' 
TABS,ioos:station:wmo:42045:1,2008-05-03T06:30:00Z,26.2168,-96.4998,2.0,213.9036557,33.43478727,-99999.0,'11111222,11111222,99999999' 
TABS,ioos:station:wmo:42045:1,2008-05-03T07:00:00Z,26.2168,-96.4998,2.0,235.7534474,28.57395317,-99999.0,'11111222,11111222,99999999' 
TABS,ioos:station:wmo:42045:1,2008-05-03T07:30:00Z,26.2168,-96.4998,2.0,242.8150863,23.98993956,-99999.0,'11111222,11111222,99999999' 
TABS,ioos:station:wmo:42045:1,2008-05-03T08:00:00Z,26.2168,-96.4998,2.0,249.8335317,24.07592158,-99999.0,'11111222,11111222,99999999' 
TABS,ioos:station:wmo:42045:1,2008-05-03T08:30:00Z,26.2168,-96.4998,2.0,251.8249373,19.4924806,-99999.0,'11111222,11111222,99999999' 
TABS,ioos:station:wmo:42045:1,2008-05-03T09:00:00Z,26.2168,-96.4998,2.0,263.4951461,16.94910027,-99999.0,'11111222,11111222,99999999' 
TABS,ioos:station:wmo:42045:1,2008-05-03T09:30:00Z,26.2168,-96.4998,2.0,263.7295843,11.72010665,-99999.0,'11111222,11111222,99999999' 
TABS,ioos:station:wmo:42045:1,2008-05-03T10:00:00Z,26.2168,-96.4998,2.0,273.742872,10.11156269,-99999.0,'11111222,11111222,99999999' 
TABS,ioos:station:wmo:42045:1,2008-05-03T10:30:00Z,26.2168,-96.4998,2.0,283.1604708,8.564934325,-99999.0,'11133222,11111222,99999999' 
TABS,ioos:station:wmo:42045:1,2008-05-03T11:00:00Z,26.2168,-96.4998,2.0,306.8841831,8.214000243,-99999.0,'11133222,11111222,99999999' 
TABS,ioos:station:wmo:42045:1,2008-05-03T11:30:00Z,26.2168,-96.4998,2.0,341.3836067,5.983059418,-99999.0,'11133222,11111222,99999999' 
TABS,ioos:station:wmo:42045:1,2008-05-03T12:00:00Z,26.2168,-96.4998,2.0,351.1356078,4.412708919,-99999.0,'11133222,11111222,99999999' 
TABS,ioos:station:wmo:42045:1,2008-05-03T12:30:00Z,26.2168,-96.4998,2.0,57.6771256,5.928659208,-99999.0,'11133222,11111222,99999999' 
TABS,ioos:station:wmo:42045:1,2008-05-03T13:00:00Z,26.2168,-96.4998,2.0,63.95040015,8.949106101,-99999.0,'11133222,11111222,99999999' 
TABS,ioos:station:wmo:42045:1,2008-05-03T13:30:00Z,26.2168,-96.4998,2.0,85.15260394,11.36063379,-99999.0,'11111222,11111222,99999999' 
TABS,ioos:station:wmo:42045:1,2008-05-03T14:00:00Z,26.2168,-96.4998,2.0,86.89573751,7.571109562,-99999.0,'11133222,11111222,99999999' 
TABS,ioos:station:wmo:42045:1,2008-05-03T14:30:00Z,26.2168,-96.4998,2.0,91.95452205,9.675629179,-99999.0,'11133222,11111222,99999999' 
TABS,ioos:station:wmo:42045:1,2008-05-03T15:00:00Z,26.2168,-96.4998,2.0,92.68257306,14.95638994,-99999.0,'11111222,11111222,99999999' 
TABS,ioos:station:wmo:42045:1,2008-05-03T15:30:00Z,26.2168,-96.4998,2.0,94.81561303,17.39139155,-99999.0,'11111222,11111222,99999999' 
TABS,ioos:station:wmo:42045:1,2008-05-03T16:00:00Z,26.2168,-96.4998,2.0,105.0716887,19.72864415,-99999.0,'11111222,11111222,99999999' 
TABS,ioos:station:wmo:42045:1,2008-05-03T16:30:00Z,26.2168,-96.4998,2.0,112.0306147,22.74043315,-99999.0,'11111222,11111222,99999999' 
TABS,ioos:station:wmo:42045:1,2008-05-03T17:00:00Z,26.2168,-96.4998,2.0,117.3169121,24.53625073,-99999.0,'11111222,11111222,99999999' 
TABS,ioos:station:wmo:42045:1,2008-05-03T17:30:00Z,26.2168,-96.4998,2.0,123.6249023,24.41514489,-99999.0,'11111222,11111222,99999999' 
TABS,ioos:station:wmo:42045:1,2008-05-03T18:00:00Z,26.2168,-96.4998,2.0,129.0018166,27.20283074,-99999.0,'11111222,11111222,99999999' 
TABS,ioos:station:wmo:42045:1,2008-05-03T18:30:00Z,26.2168,-96.4998,2.0,135.3495099,28.97070417,-99999.0,'11111222,11111222,99999999' 
TABS,ioos:station:wmo:42045:1,2008-05-03T19:00:00Z,26.2168,-96.4998,2.0,140.1288695,32.50858502,-99999.0,'11111222,11111222,99999999' 
TABS,ioos:station:wmo:42045:1,2008-05-03T19:30:00Z,26.2168,-96.4998,2.0,142.3656961,35.68517479,-99999.0,'11111222,11111222,99999999' 
TABS,ioos:station:wmo:42045:1,2008-05-03T20:00:00Z,26.2168,-96.4998,2.0,147.5497727,33.32309709,-99999.0,'11111222,11111222,99999999' 
TABS,ioos:station:wmo:42045:1,2008-05-03T20:30:00Z,26.2168,-96.4998,2.0,143.7489049,42.95450617,-99999.0,'11111222,11111222,99999999' 
TABS,ioos:station:wmo:42045:1,2008-05-03T21:00:00Z,26.2168,-96.4998,2.0,147.6241064,45.58616128,-99999.0,'11111222,11111222,99999999' 
TABS,ioos:station:wmo:42045:1,2008-05-03T21:30:00Z,26.2168,-96.4998,2.0,149.3131256,45.04805989,-99999.0,'11111222,11111222,99999999' 
TABS,ioos:station:wmo:42045:1,2008-05-03T22:00:00Z,26.2168,-96.4998,2.0,156.8198673,44.45904745,-99999.0,'11111222,11111222,99999999' 
TABS,ioos:station:wmo:42045:1,2008-05-03T22:30:00Z,26.2168,-96.4998,2.0,164.2027582,47.75356008,-99999.0,'11111222,11111222,99999999' 
TABS,ioos:station:wmo:42045:1,2008-05-03T23:00:00Z,26.2168,-96.4998,2.0,166.4635478,49.4743004,-99999.0,'11111222,11111222,99999999' 
TABS,ioos:station:wmo:42045:1,2008-05-03T23:30:00Z,26.2168,-96.4998,2.0,176.5734559,45.51135353,-99999.0,'11111222,11111222,99999999' 
TABS,ioos:station:wmo:42045:1,2008-05-04T00:00:00Z,26.2168,-96.4998,2.0,178.0965115,48.7769095,-99999.0,'11111222,11111222,99999999' 
TABS,ioos:station:wmo:42045:1,2008-05-04T00:30:00Z,26.2168,-96.4998,2.0,186.8420898,49.77450452,-99999.0,'11111222,11111222,99999999' 
TABS,ioos:station:wmo:42045:1,2008-05-04T01:00:00Z,26.2168,-96.4998,2.0,182.783643,47.35588665,-99999.0,'11111222,11111222,99999999' 
TABS,ioos:station:wmo:42045:1,2008-05-04T01:30:00Z,26.2168,-96.4998,2.0,185.5140328,36.00662717,-99999.0,'11111222,11111222,99999999' 
TABS,ioos:station:wmo:42045:1,2008-05-04T02:00:00Z,26.2168,-96.4998,2.0,184.3941401,40.45893721,-99999.0,'11111222,11111222,99999999' 
TABS,ioos:station:wmo:42045:1,2008-05-04T02:30:00Z,26.2168,-96.4998,2.0,185.0169301,47.11050095,-99999.0,'11111222,11111222,99999999' 
TABS,ioos:station:wmo:42045:1,2008-05-04T03:00:00Z,26.2168,-96.4998,2.0,190.5786981,45.80861273,-99999.0,'11111222,11111222,99999999' 
TABS,ioos:station:wmo:42045:1,2008-05-04T03:30:00Z,26.2168,-96.4998,2.0,188.449957,50.62963559,-99999.0,'11111222,11111222,99999999' 
TABS,ioos:station:wmo:42045:1,2008-05-04T04:00:00Z,26.2168,-96.4998,2.0,186.6965993,51.45104469,-99999.0,'11111222,11111222,99999999' 
TABS,ioos:station:wmo:42045:1,2008-05-04T04:30:00Z,26.2168,-96.4998,2.0,190.1763411,54.33479916,-99999.0,'11111222,11111222,99999999' 
TABS,ioos:station:wmo:42045:1,2008-05-04T05:00:00Z,26.2168,-96.4998,2.0,203.4672905,52.30649386,-99999.0,'11111222,11111222,99999999' 
TABS,ioos:station:wmo:42045:1,2008-05-04T05:30:00Z,26.2168,-96.4998,2.0,209.6080112,53.06965234,-99999.0,'11111222,11111222,99999999' 
TABS,ioos:station:wmo:42045:1,2008-05-04T06:00:00Z,26.2168,-96.4998,2.0,213.9388748,51.67358513,-99999.0,'11111222,11111222,99999999' 
TABS,ioos:station:wmo:42045:1,2008-05-04T06:30:00Z,26.2168,-96.4998,2.0,216.4206389,49.77152801,-99999.0,'11111222,11111222,99999999' 
TABS,ioos:station:wmo:42045:1,2008-05-04T07:00:00Z,26.2168,-96.4998,2.0,217.9919821,41.5559731,-99999.0,'11111222,11111222,99999999' 
TABS,ioos:station:wmo:42045:1,2008-05-04T07:30:00Z,26.2168,-96.4998,2.0,228.5113446,42.59831569,-99999.0,'11111222,11111222,99999999' 
TABS,ioos:station:wmo:42045:1,2008-05-04T08:00:00Z,26.2168,-96.4998,2.0,231.5719393,32.00182807,-99999.0,'11111222,11111222,99999999' 
TABS,ioos:station:wmo:42045:1,2008-05-04T08:30:00Z,26.2168,-96.4998,2.0,236.2882094,29.72915909,-99999.0,'11111222,11111222,99999999' 
TABS,ioos:station:wmo:42045:1,2008-05-04T09:00:00Z,26.2168,-96.4998,2.0,249.3459518,30.2224089,-99999.0,'11111222,11111222,99999999' 
TABS,ioos:station:wmo:42045:1,2008-05-04T09:30:00Z,26.2168,-96.4998,2.0,275.1029353,28.22183906,-99999.0,'11111222,11111222,99999999' 
TABS,ioos:station:wmo:42045:1,2008-05-04T10:00:00Z,26.2168,-96.4998,2.0,280.1877889,23.12456919,-99999.0,'11111222,11111222,99999999' 
TABS,ioos:station:wmo:42045:1,2008-05-04T10:30:00Z,26.2168,-96.4998,2.0,286.5241623,20.95542173,-99999.0,'11111222,11111222,99999999' 
TABS,ioos:station:wmo:42045:1,2008-05-04T11:00:00Z,26.2168,-96.4998,2.0,301.9936664,20.13890017,-99999.0,'11111222,11111222,99999999' 
TABS,ioos:station:wmo:42045:1,2008-05-04T11:30:00Z,26.2168,-96.4998,2.0,307.7091733,16.93781568,-99999.0,'11111222,11111222,99999999' 
TABS,ioos:station:wmo:42045:1,2008-05-04T12:00:00Z,26.2168,-96.4998,2.0,317.3246932,15.34269859,-99999.0,'11111222,11111222,99999999' 
TABS,ioos:station:wmo:42045:1,2008-05-04T12:30:00Z,26.2168,-96.4998,2.0,312.4339133,18.31829686,-99999.0,'11111222,11111222,99999999' 
TABS,ioos:station:wmo:42045:1,2008-05-04T13:00:00Z,26.2168,-96.4998,2.0,359.3309861,15.41105123,-99999.0,'11111222,11144222,99999999' 
TABS,ioos:station:wmo:42045:1,2008-05-04T13:30:00Z,26.2168,-96.4998,2.0,2.605424011,19.58023749,-99999.0,'11111222,11111222,99999999' 
TABS,ioos:station:wmo:42045:1,2008-05-04T14:00:00Z,26.2168,-96.4998,2.0,12.38638557,20.0466057,-99999.0,'11111222,11111222,99999999' 
TABS,ioos:station:wmo:42045:1,2008-05-04T14:30:00Z,26.2168,-96.4998,2.0,37.11622634,16.2901504,-99999.0,'11111222,11111222,99999999' 
TABS,ioos:station:wmo:42045:1,2008-05-04T15:00:00Z,26.2168,-96.4998,2.0,37.13586501,18.96620415,-99999.0,'11111222,11111222,99999999' 
TABS,ioos:station:wmo:42045:1,2008-05-04T15:30:00Z,26.2168,-96.4998,2.0,37.01800639,22.4560749,-99999.0,'11111222,11111222,99999999' 
TABS,ioos:station:wmo:42045:1,2008-05-04T16:00:00Z,26.2168,-96.4998,2.0,58.12097117,24.04717031,-99999.0,'11111222,11111222,99999999' 